Preview of NWS' New Version of Forecast
This preview is not operational and should not be used for support decisions.

Regional Weather Roundup (RWR)

Issued by National Weather Service (NWS)

                            
000
ASCA42 TJSJ 151910
RWRPR 
PUERTO RICO/U.S. VIRGIN ISLANDS HOURLY WEATHER ROUNDUP
NATIONAL WEATHER SERVICE SAN JUAN PR
300 PM AST SAT JUN 15 2019

PRZ001>002-007>008-010-152000-
PUERTO RICO
  
CITY           SKY/WX    TMP DP  RH WIND       PRES   REMARKS
SAN JUAN LMM   MOSUNNY   88  75  66 E21G26    30.03F HX  97           
AGUADILLA      PTSUNNY   84  75  74 E18G25    30.04F HX  92           
CEIBA          CLOUDY    88  75  66 E16       30.04F HX  97           
$$

VIZ001>002-152000-
U.S. VIRGIN ISLANDS
  
CITY           SKY/WX    TMP DP  RH WIND       PRES   REMARKS
CHARLOTTE AMA  MOSUNNY   90  72  55 E13G20    30.02F HX  96           
CHRISTIANSTED  MOSUNNY   84  73  70 E16       30.02F HX  91           
$$

HOURLY WEATHER ROUNDUP FOR THE NEWS MEDIA
  
CITY           SKY/WX    TMP DP  RH WIND       PRES   REMARKS
ORLANDO        FAIR      88  71  57 E14       30.08F HX  94           
NEW YORK       PTSUNNY   75  63  66 S21       30.04F                  
NEWARK         PTSUNNY   82  48  30 SW18G39   30.00F                  
CHICAGO        LGT RAIN  67  62  84 S3        29.77F                  
HARTFORD       FAIR      76  48  37 SW16G29   30.03F                  
BOSTON         FAIR      83  46  27 SW17G30   29.95F                  
DALLAS         MOSUNNY   91  70  49 S18G28    29.83F HX  96           
PHILADELPHIA   PTSUNNY   78  52  40 SW21G28   30.04F                  
LOS ANGELES    CLOUDY    68  57  68 S5        29.96S                  
WASHINGTON DC  PTSUNNY   82  55  39 SW16      30.04F